Home > Weather > Speyer > Past weeks

Flag for Germany Past Weather in Speyer, Rhineland-Palatinate, Germany — Yesterday and Last 2 Weeks

Now
68 °F

Passing clouds.


Feels Like: 68 °F
Forecast: 56 / 72 °F
Wind: 8 mph from Southwest

Location: Mannheim City

Current Time: Jun 28, 2016 at 12:22:54 AM

Latest Report: Jun 27, 2016 at 8:50 PM


Visibility: N/A

Pressure: 30.12 "Hg

Humidity: 64%

Dew Point: 55 °F

Location of SpeyerLocation

Past Weather in Speyer — Graph

°F

Speyer Temperature Yesterday

Maximum temperature yesterday: 70 °F (at 3:50 PM)
Minimum temperature yesterday: 55 °F (at 5:50 AM)
Average temperature yesterday: 66 °F

High & Low Weather Summary for the Past Weeks

 TemperatureHumidityPressure
High93 °F (Jun 23, 5:50 PM)100% (Jun 13, 3:20 AM)30.24 "Hg (Jun 13, 3:20 AM)
Low52 °F (Jun 20, 5:20 AM)32% (Jun 23, 7:20 PM)29.53 "Hg (Jun 14, 2:20 PM)
Average68 °F72%29.94 "Hg
* Reported Jun 13 3:20 AM — Jun 27 8:50 PM, Speyer, Weather by CustomWeather, © 2016

Note: Actual official high and low records may vary slightly from our data, if they occured in-between our weather recording intervals... More about our weather records

Advertising

Speyer Weather History for the Previous 24 Hours

Scroll right to see more
 ConditionsComfort  
Time TempWeatherWind HumidityBarometerVisibility
8:50 PM
Mon, Jun 27
68 °FPassing clouds.8 mph64%30.12 "HgN/A
8:20 PM68 °FPassing clouds.6 mph64%30.12 "HgN/A
7:50 PM70 °FPartly sunny.8 mph60%30.12 "HgN/A
7:20 PM70 °FPartly sunny.9 mph60%30.12 "HgN/A
6:50 PM70 °FPartly sunny.9 mph60%30.12 "HgN/A
6:20 PM70 °FPartly sunny.8 mph57%30.12 "HgN/A
5:50 PM70 °FPartly sunny.8 mph60%30.12 "HgN/A
5:20 PM70 °FPartly sunny.8 mph57%30.12 "HgN/A
4:50 PM70 °FOvercast.8 mph57%30.12 "HgN/A
4:20 PM70 °FPartly sunny.8 mph57%30.12 "HgN/A
3:50 PM70 °FBroken clouds.7 mph60%30.12 "HgN/A
3:20 PM68 °FBroken clouds.8 mph60%30.15 "HgN/A
2:50 PM66 °FBroken clouds.9 mph60%30.15 "HgN/A
2:20 PM68 °FPartly sunny.8 mph56%30.15 "HgN/A
1:50 PM66 °FPartly sunny.9 mph60%30.15 "HgN/A
1:20 PM68 °FBroken clouds.10 mph53%30.15 "HgN/A
12:50 PM68 °FPartly sunny.9 mph53%30.15 "HgN/A
12:20 PM68 °FBroken clouds.9 mph53%30.15 "HgN/A
11:50 AM66 °FPartly sunny.8 mph56%30.15 "HgN/A
11:20 AM66 °FScattered clouds.10 mph60%30.15 "HgN/A
10:50 AM66 °FPassing clouds.8 mph64%30.15 "HgN/A
10:20 AM64 °FScattered clouds.7 mph68%30.15 "HgN/A
9:50 AM64 °FPassing clouds.6 mph68%30.15 "HgN/A
9:20 AM63 °FPassing clouds.5 mph73%30.15 "HgN/A
8:50 AM61 °FPassing clouds.7 mph72%30.15 "HgN/A
8:20 AM61 °FPassing clouds.6 mph77%30.15 "HgN/A
7:50 AM59 °FPassing clouds.6 mph82%30.15 "HgN/A
7:20 AM57 °FPassing clouds.5 mph88%30.15 "HgN/A
6:50 AM57 °FSunny.3 mph88%30.15 "Hg10 mi
6:20 AM55 °FClear.3 mph88%30.15 "Hg10 mi
5:50 AM55 °FClear.3 mph94%30.15 "Hg10 mi
Weather by CustomWeather, © 2016

See weather overviewHow to use our weather pages